www.pogodaiklimat.ru

Погода и климат >> Архив погоды >> Бельгия >> Гуман


ПОГОДА в Гумане

  • Прогноз погоды в Гумане
  • Монитор погоды в Гумане

АРХИВ ПОГОДЫ в Гумане

Время (UTC), дата Ветер
(напр.,м/с)
 
Видим.   Явления Облачность Т
(С)
Тd
(С)
f
(%)
Тe
(С)
Тes
(С)
Комфортность P
(гПа)
Po
(гПа)
Тmin
(С)
Tmax
(С)
R
(мм)
R24
(мм)
S
(см)
13 10.09 С 2 н/о н/о +18.2 +5.7 44 +19 +19 1019.6 984.9 194
14 10.09 СЗ 1 н/о н/о +17.4 +5.9 47 +18 +18 1019.5 984.7 74
15 10.09 СЗ 3 н/о н/о +18.7 +5.0 40 +19 +19 1019.5 984.9 122
16 10.09 СВ 1 н/о н/о +18.5 +4.6 40 +20 +20 1019.4 984.7 83
17 10.09 н/о н/о +17.7 +5.5 45 1019.7 985.0 47
18 10.09 СВ 1
{5}
н/о н/о +16.2 +5.4 49 +17 +17 1020.3 985.3 +18.7 14
19 10.09 СВ 1 н/о н/о +15.9 +4.0 45 +17 +17 1020.8 985.8
20 10.09 ЮЗ 1 н/о н/о +13.5 +5.9 60 +14 +14 1022.0 986.7
21 10.09 ЮВ 1 н/о н/о +11.7 +6.0 68 +12 +12 1022.8 987.2
22 10.09 ЮВ 1 н/о н/о +11.1 +6.6 74 +11 +11 1023.1 987.5
23 10.09 ЮВ 2 н/о н/о +9.4 +6.3 81 +8 +8 1022.9 987.0
00 11.09 Ю 2 н/о н/о +9.0 +6.3 83 +7 +7 1023.0 987.1 130
01 11.09 Ю 2 н/о н/о +7.7 +5.4 85 +6 +6 1023.6 987.5
02 11.09 Ю 2 н/о н/о +7.5 +5.7 88 +5 +5 1023.6 987.5
03 11.09 ЮВ 2 н/о н/о +7.5 +5.9 90 +5 +5 1023.3 987.3
04 11.09 В 1 н/о н/о +7.2 +5.4 88 +6 +6 1023.8 987.7
05 11.09 В 2 н/о н/о +7.9 +6.2 89 +6 +6 1023.8 987.7
06 11.09 ЮВ 2
{3}
н/о н/о +8.8 +6.9 88 +7 +7 1024.1 988.1 +7.0
07 11.09 Ю 2 н/о н/о +9.9 +7.4 84 +8 +8 1024.4 988.6 20
08 11.09 Ю 2 н/о н/о +11.1 +8.0 81 +10 +10 1024.6 988.9 34
09 11.09 ЮЗ 3
{4}
н/о н/о +13.3 +8.0 70 +12 +12 1024.8 989.4 63
10 11.09 З 5 н/о н/о +15.2 +9.5 69 +14 +14 1024.9 989.8 102
11 11.09 ЮЗ 4 н/о н/о +15.8 +9.0 64 +15 +15 1024.4 989.3 104
12 11.09 З 5 н/о н/о +16.1 +8.1 59 +15 +15 1024.5 989.5 96
13 11.09 ЮЗ 5 н/о н/о +16.9 +8.8 59 +16 +16 1024.4 989.4 63
14 11.09 ЮЗ 5 н/о н/о +17.0 +9.1 60 +16 +16 1024.3 989.4 55
15 11.09 ЮЗ 5
{9}
н/о н/о +17.7 +8.9 56 +17 +17 1024.3 989.4 74
16 11.09 ЮЗ 5 н/о н/о +17.7 +8.0 53 +17 +17 1024.4 989.5 44
17 11.09 ЮЗ 5 н/о н/о +17.7 +8.4 54 +17 +17 1024.8 989.9 21
18 11.09 ЮЗ 4
{9}
н/о н/о +16.9 +8.7 58 +16 +16 1024.9 989.9 +18.0 6
19 11.09 Ю 3 н/о н/о +16.4 +8.9 61 +16 +16 1025.4 990.4
20 11.09 ЮЗ 4 н/о н/о +16.5 +8.4 59 +16 +16 1025.9 990.9
21 11.09 ЮЗ 4 н/о н/о +16.8 +8.7 59 +16 +16 1026.6 991.5
22 11.09 ЮЗ 3 н/о н/о +16.4 +9.0 62 +16 +16 1026.4 991.3
23 11.09 ЮЗ 4 н/о н/о +15.3 +11.2 77 +14 +14 1026.9 991.7
00 12.09 ЮЗ 4
{8}
н/о н/о +14.6 +13.1 91 +13 +13 1027.0 991.7 69
01 12.09 ЮЗ 3 н/о н/о +14.6 +13.6 94 +14 +14 1027.5 992.2
02 12.09 ЮЗ 4 н/о н/о +14.8 +14.1 96 +14 +14 1027.6 992.3
03 12.09 ЮЗ 3 н/о н/о +14.9 +14.3 96 +14 +14 1027.5 992.3
04 12.09 ЮЗ 4 н/о н/о +14.8 +14.3 97 +14 +14 1027.8 992.5
05 12.09 ЮЗ 4 н/о н/о +15.0 +14.5 97 +14 +14 1028.3 993.0
06 12.09 ЮЗ 3
{6}
н/о н/о +15.1 +14.6 97 +14 +14 1028.8 993.5 +14.5 2 1
07 12.09 ЮЗ 4 н/о н/о +15.6 +15.1 97 +15 +15 1029.2 994.0 11
08 12.09 ЮЗ 4 н/о н/о +16.0 +15.6 97 +15 +15 1029.7 994.5 28
09 12.09 З 5
{7}
н/о н/о +16.6 +16.0 96 +16 +16 1030.4 995.3 37
10 12.09 З 4 н/о н/о +17.4 +16.5 94 +17 +17 1030.8 995.8 77
11 12.09 З 5 н/о н/о +19.0 +15.1 78 +20 +20 1030.6 995.8 176
12 12.09 З 4
{11}
н/о н/о +19.2 +14.4 74 +21 +21 комфорт 1030.7 995.9 135
13 12.09 З 4 н/о н/о +20.8 +14.4 67 +24 +24 комфорт 1030.6 995.9 137
14 12.09 З 4 н/о н/о +21.7 +12.8 57 +24 +24 комфорт 1030.4 995.8 163
15 12.09 ЮЗ 5 н/о н/о +21.5 +12.2 55 +24 +24 комфорт 1030.3 995.7 117
16 12.09 З 5 н/о н/о +21.3 +12.4 57 +24 +24 комфорт 1030.3 995.7 73
17 12.09 З 5 н/о н/о +19.8 +12.9 64 +21 +21 комфорт 1030.8 996.0 16
18 12.09 З 3
{10}
н/о н/о +19.0 +13.4 70 +20 +20 1031.3 996.4 +21.9 0.6
19 12.09 ЮЗ 2 н/о н/о +18.5 +13.8 74 +20 +20 1031.7 996.7
20 12.09 ЮЗ 3 н/о н/о +17.2 +13.9 81 +17 +17 1031.7 996.6
21 12.09 ЮЗ 3 н/о н/о +16.0 +13.8 87 +16 +16 1031.9 996.6
22 12.09 ЮЗ 4 н/о н/о +16.2 +14.5 90 +15 +15 1031.9 996.6
23 12.09 ЮЗ 4 н/о н/о +16.3 +14.8 91 +16 +16 1032.0 996.7
00 13.09 ЮЗ 4 н/о н/о +16.1 +14.8 92 +15 +15 1032.0 996.7 98
01 13.09 ЮЗ 3 н/о н/о +16.0 +14.6 91 +16 +16 1032.0 996.7
02 13.09 З 4 н/о 9/9 <50 м
[]
+15.6 +13.5 87 +15 +15 1031.9 996.6
03 13.09 З 3 н/о н/о +15.2 +13.1 87 +14 +14 1032.1 996.7
04 13.09 З 4 н/о н/о +15.0 +13.3 90 +14 +14 1032.2 996.8
05 13.09 З 2 н/о н/о +14.7 +13.3 91 +14 +14 1032.5 997.1
06 13.09 ЮЗ 2
{9}
н/о н/о +14.7 +13.6 93 +14 +14 1032.8 997.4 +14.6
07 13.09 З 2 н/о н/о +15.0 +13.8 93 +15 +15 1033.1 997.7 7
08 13.09 ЮЗ 2 н/о н/о +15.7 +14.3 91 +16 +16 1033.5 998.2 27
09 13.09 З 2
{4}
н/о н/о +16.3 +14.2 87 +16 +16 1034.0 998.7 32
10 13.09 З 2 н/о н/о +16.3 +13.8 85 +16 +16 1034.1 998.8 33
11 13.09 СЗ 2 н/о н/о +16.4 +14.7 90 +16 +16 1034.0 998.8 51
12 13.09 З 1 н/о н/о +16.4 +14.4 88 +17 +17 1034.4 999.1 39
13 13.09 СЗ 2 н/о н/о +16.6 +15.1 91 +17 +17 1034.2 998.9 42
14 13.09 ЮЗ 1 н/о н/о +17.6 +15.8 89 +19 +19 1034.1 999.0 68
15 13.09 ЮЗ 1 н/о н/о +18.9 +15.3 80 +21 +21 комфорт 1033.5 998.7 96
16 13.09 В 1 н/о н/о +19.5 +14.3 72 +22 +22 комфорт 1033.2 998.2 113
17 13.09 С 1 н/о н/о +18.9 +13.7 72 +21 +21 комфорт 1033.5 998.5 37
18 13.09 С 1
{3}
н/о н/о +17.6 +14.0 79 +18 +18 1033.7 998.5 +19.8 6
19 13.09 СВ 3 н/о н/о +16.5 +13.2 81 +16 +16 1034.2 998.9
20 13.09 СВ 3 н/о н/о +16.2 +13.2 82 +16 +16 1034.2 998.8
21 13.09 СВ 3 н/о н/о +15.6 +13.3 86 +15 +15 1034.5 999.1
22 13.09 С 3 н/о н/о +14.7 +12.7 88 +14 +14 1034.6 999.0
23 13.09 СВ 3 н/о н/о +14.2 +12.6 90 +13 +13 1034.8 999.1
00 14.09 СВ 3 н/о н/о +13.9 +12.4 91 +13 +13 1034.6 998.9 55
01 14.09 СВ 3 н/о н/о +12.9 +11.7 92 +11 +11 1034.6 998.8
02 14.09 СВ 4 н/о 5/5 <50 м
[]
+12.6 +11.6 94 +11 +11 1034.4 998.6
03 14.09 СВ 3 н/о н/о +12.4 +11.3 93 +11 +11 1034.1 998.3
04 14.09 СВ 3 н/о н/о +11.0 +9.5 90 +9 +9 1034.1 998.1
05 14.09 СВ 4 н/о н/о +10.9 +10.0 94 +8 +8 1034.2 998.2
06 14.09 В 2
{6}
н/о н/о +10.5 +9.3 92 +9 +9 1034.4 998.3 +10.2 2
07 14.09 штиль 0 н/о н/о +11.6 +10.4 92 +11 +11 1034.1 998.2 29
08 14.09 С 2 н/о н/о +13.1 +11.5 90 +12 +12 1034.1 998.4 78
09 14.09 С 2
{4}
н/о н/о +15.0 +12.0 82 +15 +15 1033.6 998.1 125
10 14.09 СВ 3 н/о н/о +17.2 +11.9 71 +17 +17 1033.3 998.1 161
11 14.09 С 2 н/о н/о +19.0 +11.6 62 +20 +20 1032.5 997.6 183
12 14.09 СВ 1 н/о н/о +19.9 +9.9 52 +22 +22 комфорт 1031.7 996.9 197
13 14.09 СВ 2 н/о н/о +20.4 +9.7 50 +22 +22 комфорт 1031.1 996.4 197
14 14.09 СВ 3 н/о н/о +21.2 +9.6 47 +23 +23 комфорт 1030.2 995.5 176
15 14.09 С 2 н/о н/о +21.2 +8.7 45 +22 +22 комфорт 1029.9 995.2 141
16 14.09 С 2 н/о н/о +21.0 +9.2 47 +23 +23 комфорт 1029.1 994.5 96
17 14.09 н/о н/о +20.0 +9.6 51 1029.2 994.5 47
18 14.09 СВ 2
{5}
н/о н/о +18.0 +9.4 57 +19 +19 1029.4 994.3 +21.3 11
19 14.09 СВ 3 н/о н/о +16.6 +9.3 62 +16 +16 1029.5 994.3
20 14.09 СВ 2 н/о н/о +16.0 +9.1 64 +16 +16 1029.1 993.9
21 14.09 В 2 н/о н/о +14.9 +9.1 68 +15 +15 1029.2 993.8
22 14.09 СВ 2 н/о н/о +13.3 +8.9 75 +13 +13 1029.3 993.6
23 14.09 Ю 2 н/о н/о +11.1 +8.6 85 +10 +10 1028.7 992.9
00 15.09 Ю 1 н/о н/о +11.5 +9.4 87 +11 +11 1028.2 992.4 145
01 15.09 ЮЗ 1 н/о н/о +11.7 +9.3 85 +12 +12 1027.9 992.2
02 15.09 штиль 0 н/о н/о +10.8 +7.8 82 +10 +10 1027.6 991.8
03 15.09 Ю 1
{3}
н/о ясно +10.6 +8.5 87 +10 +10 1027.1 991.3
04 15.09 ЮВ 1 н/о н/о +10.8 +8.2 84 +10 +10 1026.9 991.1
05 15.09 ЮВ 1 н/о н/о +9.6 +7.5 87 +9 +9 1027.1 991.2
06 15.09 ЮВ 1
{3}
н/о н/о +9.5 +7.8 89 +9 +9 1027.0 991.2 +9.1 2
07 15.09 ЮВ 1 н/о н/о +12.0 +10.3 89 +12 +12 1026.8 991.2 29
08 15.09 Ю 1 н/о н/о +14.4 +12.1 86 +15 +15 1026.7 991.4 75
09 15.09 З 1
{2}
н/о н/о +16.9 +11.6 71 +18 +18 1026.1 991.2 126
10 15.09 З 1 н/о н/о +18.9 +10.2 57 +21 +21 комфорт 1026.0 991.2 162
11 15.09 ЮЗ 2 н/о н/о +21.2 +10.9 52 +23 +23 комфорт 1025.6 991.1 186
12 15.09 З 2 н/о н/о +22.2 +9.0 43 +24 +24 комфорт 1025.0 990.6 197
13 15.09 СЗ 3 н/о н/о +22.5 +7.1 37 +23 +23 комфорт 1024.5 990.1 192
14 15.09 З 3 н/о н/о +23.5 +8.6 39 +24 +24 комфорт 1023.6 989.4 172
15 15.09 С 1 н/о н/о +23.4 +6.6 34 +24 +24 комфорт 1022.9 988.7 139
16 15.09 СЗ 3 н/о н/о +22.9 +5.8 33 +23 +23 комфорт 1022.7 988.5 91
17 15.09 СЗ 3 н/о н/о +21.6 +7.0 39 +22 +22 комфорт 1022.8 988.4 48
18 15.09 СЗ 2
{5}
н/о н/о +19.4 +5.4 40 +21 +21 комфорт 1023.1 988.5 +24.0 10
19 15.09 С 2 н/о н/о +17.4 +6.4 48 +18 +18 1023.5 988.6
20 15.09 В 1 н/о н/о +15.8 +7.1 56 +17 +17 1024.0 988.9
21 15.09 СВ 1 н/о н/о +16.4 +7.0 54 +17 +17 1023.9 988.8
22 15.09 Ю 1 н/о н/о +13.5 +7.8 68 +14 +14 1024.2 988.8
23 15.09 В 1 н/о н/о +12.0 +7.0 71 +12 +12 1024.3 988.8
00 16.09 ЮВ 1 н/о н/о +11.2 +7.7 79 +11 +11 1023.8 988.2 143
01 16.09 В 2 н/о н/о +10.9 +8.2 83 +10 +10 1023.5 988.0
02 16.09 В 1 н/о 9/9 <50 м
[]
+10.5 +7.8 83 +10 +10 1023.3 987.6
03 16.09 Ю 1
{3}
н/о 9/9 <50 м
[]
+9.5 +7.2 86 +9 +9 1023.3 987.5
04 16.09 Ю 1 н/о н/о +9.4 +7.3 87 +9 +9 1022.8 987.0
05 16.09 Ю 1 н/о н/о +9.6 +7.6 87 +9 +9 1022.4 986.7
06 16.09 ЮВ 1
{4}
н/о н/о +10.1 +7.9 86 +10 +10 1022.6 986.9 +8.7 1
07 16.09 Ю 1 н/о н/о +11.6 +9.5 87 +11 +11 1022.5 987.0 15
08 16.09 Ю 2 н/о н/о +13.2 +9.3 77 +13 +13 1022.6 987.3 31
09 16.09 Ю 2
{3}
н/о н/о +15.4 +10.0 70 +15 +15 1022.3 987.2 60
10 16.09 З 2 н/о н/о +17.0 +9.7 62 +17 +17 1021.8 987.0 85
11 16.09 З 3 н/о н/о +18.8 +9.5 55 +20 +20 1021.4 986.8 91
12 16.09 З 3 н/о н/о +20.7 +10.3 51 +23 +23 комфорт 1020.9 986.5 90
13 16.09 З 4 н/о н/о +20.5 +9.6 50 +22 +22 комфорт 1020.6 986.2 80
14 16.09 СЗ 3 н/о н/о +20.1 +9.7 51 +22 +22 комфорт 1020.6 986.1 51
15 16.09 СЗ 4 н/о н/о +19.5 +10.8 57 +21 +21 комфорт 1020.6 986.1 47
16 16.09 СЗ 4 н/о н/о +18.9 +12.0 64 +20 +20 1020.6 986.1 27
17 16.09 СЗ 3 н/о н/о +18.3 +12.8 70 +19 +19 1020.5 985.8 12
18 16.09 С 4
{7}
н/о н/о +16.4 +13.5 83 +16 +16 1021.2 986.3 +20.7 2
19 16.09 н/о н/о +15.3 +13.8 91 1021.7 986.7
20 16.09 н/о н/о +15.1 +14.0 93 1021.7 986.7
21 16.09 С 2 н/о н/о +14.6 +13.6 94 +14 +14 1021.9 986.8
22 16.09 С 4 н/о н/о +14.1 +13.1 94 +13 +13 1022.3 987.1
23 16.09 СВ 2 н/о н/о +13.1 +12.2 94 +12 +12 1022.5 987.1
00 17.09 СВ 1
{7}
н/о н/о +13.0 +12.2 95 +13 +13 1022.5 987.1 59
01 17.09 СВ 1 н/о н/о +13.0 +12.3 96 +13 +13 1022.3 987.0
02 17.09 н/о н/о +12.9 +12.3 96 1022.0 986.7
03 17.09 С 3 н/о н/о +12.8 +12.2 96 +11 +11 1022.0 986.7
04 17.09 С 2 н/о н/о +12.0 +11.4 96 +11 +11 1022.5 987.0
05 17.09 С 2 н/о н/о +11.9 +11.1 95 +11 +11 1022.5 987.0
06 17.09 СЗ 1
{6}
н/о н/о +11.9 +11.1 95 +12 +12 1022.8 987.4 +11.8 0.3
07 17.09 С 1 н/о н/о +12.0 +11.1 94 +12 +12 1023.2 987.7 14
08 17.09 С 2 н/о н/о +12.8 +11.2 90 +12 +12 1023.7 988.3 56
09 17.09 СЗ 2
{5}
н/о н/о +13.3 +9.7 79 +13 +13 1023.8 988.5 60
10 17.09 С 4 н/о н/о +14.1 +8.4 69 +13 +13 1023.7 988.5 100
11 17.09 С 3 н/о н/о +15.6 +9.1 65 +15 +15 1023.5 988.4 159
12 17.09 С 4 н/о н/о +16.4 +7.6 56 +16 +16 1023.3 988.4 184
13 17.09 СЗ 3 н/о н/о +16.7 +6.9 52 +17 +17 1023.0 988.1 182

 

Местоположение метеостанции Гуман (Бельгия): широта 50.20 долгота 5.25 высота над уровнем моря 294 м.

В архиве по умолчанию представлена погода в Гумане за последнюю неделю. Архивные данные за месяц целиком и за предыдущие месяцы, начиная с января 2011 года, Вы можете получить, выбрав интересующий диапазон дат из раскрывающегося списка и нажав кнопку "Ввод!".


*Определитесь, кто Вы:
робот инопланетянин человек

Внимание! Время в таблицах - всемирное. Для получения местного времени необходимо прибавить поправку, которая равна 1 ч.

Смотрите также архив погоды в соседних городах и на ближайших метеорологических станциях:

Погода в Сент-Губерте (Бельгия) (22 км)
Погода во Флорене (Бельгия) (43 км)
Погода в Дурбе (Бельгия) (48 км)
Погода в Бьерсете (Бельгия) (52 км)
Погода в Спа (Бельгия) (57 км)
Погода в Шарлеруа (Бельгия) (64 км)
Погода в Чарвилле (Франция) (64 км)
Погода в Эрнаже (Бельгия) (66 км)
Погода на Монт-Риги (Бельгия) (68 км)
Погода в Бюзеноле (Бельгия) (69 км)

Пояснения к столбцам:

Ветер - указаны скорость ветра в м/с - средняя за 10 мин, порывы в срок и между сроками (в фигурных скобках) и направление, откуда дует ветер: С - северный, СВ - северо-восточный, В - восточный, ЮВ - юго-восточный, Ю - южный, ЮЗ - юго-западный, З - западный, СЗ - северо-западный.
Видимость - горизонтальная дальность видимости в метрах или километрах. При видимости от 1 до 10 км при отсутствии осадков обычно наблюдается дымка, при ухудшении видимости до 1 км и менее - туман. В сухую погоду видимость может ухудшаться дымом, пылью или мглою.
Явления - указаны атмосферные явления, наблюдавшиеся в срок или в последний час перед сроком; фигурными скобками обозначены явления, наблюдавшиеся между сроками (за 1-3 часа до срока); квадратными скобками обозначены град или гололедные отложения с указанием их диаметра в мм.
Облачность - указаны через наклонную черту общая и нижняя облачность в баллах и высота нижней границы облаков в метрах; квадратными скобками обозначены формы облаков: Ci - перистые, Cs - перисто-слоистые, Cc - перисто-кучевые, Ac - высококучевые, As - высокослоистые, Sc - слоисто-кучевые, Ns - слоисто-дождевые, Cu - кучевые, Cb - кучево-дождевые. Подробнее классификацию облаков см. в Атласе облаков (PDF).
T - Температура воздуха - температура, измеренная на высоте 2 м над землей.
Td - Температура точки росы - температура, при понижении до которой содержащийся в воздухе водяной пар достигнет насыщения.
f - Относительная влажность воздуха - влажноcть воздуха, измеренная на высоте 2 м над землей.
Te - Эффективная температура - температура, которую ощущает одетый по сезону человек в тени. Характеристика душности погоды. При расчете учитывается влияние влажности воздуха и скорости ветра на теплоощущения человека.
Tes - Эффективная температура на солнце - температура, которую ощущает человек, с поправкой на солнечный нагрев. Характеристика знойности погоды. Зависит от высоты солнца над горизонтом, облачности и скорости ветра. Ночью, в пасмурную погоду, а также при ветре 12 м/с и более поправка равна нулю.
P - Атмосферное давление - приведенное к уровню моря атмосферное давление.
Po - Атмосферное давление - измеренное на уровне метеостанции атмосферное давление.
Tmin - Минимальная температура - минимум температуры воздуха на высоте 2 м над землей.
Tmax - Максимальная температура - максимум температуры воздуха на высоте 2 м над землей.
R - Количество осадков - Количество выпавших осадков за период времени, мм. При наведении курсора мыши на число - период времени, за который выпало указанное количество осадков.
R24 - Количество осадков - Количество выпавших осадков за 24 часа, мм.
S - Снежный покров - Высота снежного покрова, см. При наведении курсора мыши на число - состояние снежного покрова и степень покрытия местности в баллах.